Regional Weather Roundup
Issued by NWS

Home | Current Version | Previous Version | Text Only | Print | Product List | Glossary On
Versions: 1 2 3 4 5 6 7 8 9 10 11 12 13 14 15 16 17 18 19 20 21 22 23 24 25 26 27 28 29 30 31 32 33 34 35 36 37 38 39 40 41 42 43 44 45 46 47 48 49 50
000
ASUS43 KLSX 292010
RWRMO

WEATHER SUMMARY FOR MISSOURI
NATIONAL WEATHER SERVICE SPRINGFIELD MO
300 PM CDT MON MAY 29 2017

NOTE: "FAIR" INDICATES FEW OR NO CLOUDS BELOW 12,000 FEET WITH NO
       SIGNIFICANT WEATHER AND/OR OBSTRUCTIONS TO VISIBILITY.
       CURRENT SKY AND/OR WEATHER CONDITIONS ARE NOT AVAILABLE FOR
       CHILLICOTHE AND FARMINGTON.

MOZ001>031-035>038-043-044-053-054-292100-
...NORTHERN AND WESTERN MISSOURI...

CITY           SKY/WX    TMP DP  RH WIND       PRES   REMARKS
KANSAS CTY INT MOSUNNY   79  49  34 NW13G18   29.99F
KANSAS C DTWN  SUNNY     81  47  30 NW9       29.98S
LEE`S SUMMIT   SUNNY     80  50  34 NW9       30.00S
ST JOSEPH      SUNNY     82  44  26 N14G26    29.98F
CHILLICOTHE      N/A     79  45  29 VRB5      29.97S
KIRKSVILLE     SUNNY     78  41  26 W16G22    29.96S

$$
MOZ066>068-077>081-088>096-101>105-292100-
...SOUTHWEST MISSOURI...

CITY           SKY/WX    TMP DP  RH WIND       PRES   REMARKS
SPRINGFIELD    SUNNY     82  52  35 W12G20    30.01F
JOPLIN         SUNNY     85  55  35 W14       30.01F
BRANSON        PTSUNNY   81  55  41 SW7       30.04F

$$
MOZ032>034-039>042-045>050-055>058-069>072-292100-
...CENTRAL MISSOURI...

CITY           SKY/WX    TMP DP  RH WIND       PRES   REMARKS
COLUMBIA       MOSUNNY   82  54  37 NW15G22   29.94S
JEFFERSON CITY MOSUNNY   84  55  36 W14G22    29.93R
ROLLA          SUNNY     80  56  43 SW15G22   29.95F
SEDALIA        SUNNY     82  54  37 W13       29.99S
WHITEMAN AFB   SUNNY     80  50  35 NW13      29.97S
WARRENSBURG    SUNNY     79  50  36 NW8       29.98F
OSAGE BEACH    SUNNY     82  56  40 W9G17     29.98R

$$
MOZ051-052-059>065-292100-
...EAST CENTRAL MISSOURI...

CITY           SKY/WX    TMP DP  RH WIND       PRES   REMARKS
ST LOUIS INTL  PTSUNNY   88  47  24 SW13G24   29.91F
SPIRIT OF STL  MOSUNNY   86  51  29 W17G26    29.89F
ST CHARLES     PTSUNNY   86  45  23 SW13      29.88F

$$
MOZ072>076-082>087-097>100-106>115-292100-
...SOUTH CENTRAL AND SOUTHEAST MISSOURI...

CITY           SKY/WX    TMP DP  RH WIND       PRES   REMARKS
CAPE GIRARDEAU SUNNY     85  55  35 W14G22    29.94F
FARMINGTON     SUNNY     83  51  33 SW13      29.97F
POPLAR BLUFF   CLOUDY    83  62  49 SW12      29.96F
WEST PLAINS    MOSUNNY   81  56  42 W9        30.02F

$$



USA.gov is the U.S. government's official web portal to all federal, state and local government web resources and services.